Location: Newark
(43.4306°N, 0.3089°E)
Time: 02:31:27
(UTC+00:00)

Tiros 1 - All Passes

Search period start: 21 August 2019 00:00
Search period end: 31 August 2019 00:00
Orbit: 630 x 664 km, 48.4° (Epoch: 19 August)

Date Brightness Start Highest point End Pass type
(mag) Time Alt. Az. Time Alt. Az. Time Alt. Az.
21 Aug - 00:32:28 10° SW 00:37:00 59° SSE 00:41:36 10° ENE visible
21 Aug - 02:14:45 10° W 02:19:18 53° NNW 02:23:54 10° ENE visible
21 Aug - 03:57:30 10° WNW 04:02:02 48° N 04:06:37 10° E visible
21 Aug - 05:39:48 10° WNW 05:44:31 82° SSW 05:49:16 10° ESE daylight
21 Aug - 07:22:44 10° W 07:26:15 21° SW 07:29:46 10° S daylight
21 Aug - 23:17:17 10° SSW 23:21:11 28° SE 23:25:08 10° E night (unlit)
22 Aug - 00:58:25 10° WSW 01:03:04 80° NNW 01:07:45 10° ENE visible
22 Aug - 02:41:10 10° WNW 02:45:39 45° N 02:50:10 10° ENE visible
22 Aug - 04:23:42 10° WNW 04:28:20 62° NNE 04:33:01 10° E visible
22 Aug - 06:06:01 10° WNW 06:10:30 44° SW 06:15:00 10° SE daylight
22 Aug - 22:04:00 10° SSE 22:05:36 12° SE 22:07:13 10° ESE night (unlit)
22 Aug - 23:42:31 10° SW 23:47:01 55° SSE 23:51:34 10° ENE visible
23 Aug - 01:24:43 10° W 01:29:17 55° NNW 01:33:53 10° ENE visible
23 Aug - 03:07:30 10° WNW 03:12:01 47° N 03:16:33 10° E visible
23 Aug - 04:49:48 10° WNW 04:54:31 86° SSW 04:59:15 10° ESE daylight
23 Aug - 06:32:39 10° W 06:36:17 22° SW 06:39:55 10° S daylight
23 Aug - 22:27:26 10° SSW 22:31:14 26° SE 22:35:03 10° E night (unlit)
24 Aug - 00:08:25 10° WSW 00:13:04 84° NNW 00:17:44 10° ENE visible
24 Aug - 01:51:09 10° WNW 01:55:37 45° N 02:00:08 10° ENE visible
24 Aug - 03:33:42 10° WNW 03:38:19 59° NNE 03:42:58 10° E visible
24 Aug - 05:16:00 10° WNW 05:20:30 48° SW 05:25:03 10° SE daylight
24 Aug - 21:14:45 10° SE 21:15:41 11° SE 21:16:36 10° ESE night (unlit)
24 Aug - 22:52:35 10° SW 22:57:03 51° SSE 23:01:33 10° ENE night (unlit)
25 Aug - 00:34:42 10° W 00:39:16 57° NNW 00:43:52 10° ENE visible
25 Aug - 02:17:29 10° WNW 02:21:59 46° N 02:26:30 10° E visible
25 Aug - 03:59:49 10° WNW 04:04:31 89° NE 04:09:14 10° ESE visible
25 Aug - 05:42:34 10° W 05:46:19 24° SW 05:50:05 10° S daylight
25 Aug - 21:37:36 10° S 21:41:16 24° SE 21:44:57 10° E night (unlit)
25 Aug - 23:18:26 10° WSW 23:23:04 88° NNW 23:27:43 10° ENE night (unlit)
26 Aug - 01:01:07 10° W 01:05:36 46° N 01:10:06 10° ENE visible
26 Aug - 02:43:42 10° WNW 02:48:18 57° NNE 02:52:56 10° E visible
26 Aug - 04:25:59 10° WNW 04:30:32 51° SSW 04:35:05 10° SE visible
26 Aug - 06:10:50 10° WSW 06:11:55 11° SW 06:13:00 10° SW daylight
26 Aug - 22:02:38 10° SW 22:07:04 48° SE 22:11:32 10° ENE night (unlit)
26 Aug - 23:44:41 10° W 23:49:15 58° NNW 23:53:51 10° ENE night (unlit)
27 Aug - 01:27:29 10° WNW 01:31:57 45° N 01:36:27 10° ENE visible
27 Aug - 03:09:49 10° WNW 03:14:30 85° NNE 03:19:13 10° ESE visible
27 Aug - 04:52:29 10° W 04:56:21 26° SW 05:00:13 10° SSE daylight
27 Aug - 20:47:47 10° S 20:51:19 22° SE 20:54:52 10° E night (unlit)
27 Aug - 22:28:26 10° WSW 22:33:04 87° SSE 22:37:43 10° ENE night (unlit)
28 Aug - 00:11:06 10° W 00:15:33 46° N 00:20:04 10° ENE visible
28 Aug - 01:53:42 10° WNW 01:58:17 55° NNE 02:02:53 10° E visible
28 Aug - 03:35:59 10° WNW 03:40:32 54° SSW 03:45:07 10° SE visible
28 Aug - 05:20:18 10° WSW 05:21:58 12° SW 05:23:39 10° SSW daylight
28 Aug - 21:12:43 10° SW 21:17:06 44° SE 21:21:30 10° ENE visible
28 Aug - 22:54:39 10° W 22:59:14 61° NNW 23:03:50 10° ENE night (unlit)
29 Aug - 00:37:28 10° WNW 00:41:55 45° N 00:46:25 10° ENE visible
29 Aug - 02:19:50 10° WNW 02:24:29 81° NNE 02:29:11 10° ESE visible
29 Aug - 04:02:26 10° W 04:06:23 27° SW 04:10:21 10° SSE visible
29 Aug - 19:57:58 10° S 20:01:22 20° SE 20:04:46 10° E visible
29 Aug - 21:38:27 10° WSW 21:43:04 83° SSE 21:47:42 10° ENE visible
29 Aug - 23:21:04 10° W 23:25:32 47° N 23:30:02 10° ENE night (unlit)
30 Aug - 01:03:43 10° WNW 01:08:16 54° NNE 01:12:50 10° E night (unlit)
30 Aug - 02:45:59 10° WNW 02:50:33 58° SSW 02:55:09 10° SE visible
30 Aug - 04:29:57 10° WSW 04:32:02 13° SW 04:34:06 10° SSW visible
30 Aug - 20:22:47 10° SW 20:27:07 41° SE 20:31:28 10° ENE visible
30 Aug - 22:04:38 10° W 22:09:13 63° NNW 22:13:50 10° ENE visible
30 Aug - 23:47:27 10° WNW 23:51:54 45° N 23:56:23 10° ENE night (unlit)
